Hourly Data Report for November 28, 2019

SHEARWATER RCS
NOVA SCOTIA
Current Station Operator: ECCC - MSC

44°37'47.000" N
63°30'48.000" W
24.00 m
8205092
71264
AAW

Download Data

Hourly Data (November 2019)
Hourly Data Report for November 28, 2019
TIME
LST
Temp Definition
°C
Dew Point Definition
°C
Rel Hum Definition
%
Precip. Amount Definition
mm

Wind Dir Definition
10's deg

Wind Spd Definition
km/h
Visibility Definition
km
Stn Press Definition
kPa
Hmdx Definition


Wind Chill Definition


Weather Definition


00:00 4.5 2.0 83 0.0 7 11   100.49     LegendNANA
01:00 5.9 3.2 83 0.0 10 16   100.29     LegendNANA
02:00 5.4 3.5 87 0.8 9 19   100.23     LegendNANA
03:00 5.0 3.6 90 2.8 8 20   99.96     LegendNANA
04:00 5.3 4.0 91 1.9 9 20   99.86     LegendNANA
05:00 4.9 3.8 92 3.4 8 19   99.61     LegendNANA
06:00 4.6 3.5 93 2.7 7 29   99.34     LegendNANA
07:00 4.8 3.6 92 0.2 7 34   99.09     LegendNANA
08:00 5.3 4.1 92 5.8 8 35   98.95     LegendNANA
09:00 4.7 3.6 92 11.6 5 12   99.07     LegendNANA
10:00 4.4 3.3 93 11.5 3 19   99.01     LegendNANA
11:00 3.8 2.7 92 3.8 1 18   98.99     LegendNANA
12:00 3.4 2.3 92 6.0 1 21   98.95     LegendNANA
13:00 1.5 0.5 93 2.9 2 22   98.93     LegendNANA
14:00 1.1 0.0 92 2.9 2 32   98.90     LegendNANA
15:00 1.0 0.2 94 3.3 1 36   98.91     LegendNANA
16:00 1.5 0.4 92 2.4 1 34   99.04     LegendNANA
17:00 1.3 0.1 92 2.5 36 32   99.13     LegendNANA
18:00 1.7 0.5 92 2.7 36 33   99.21     LegendNANA
19:00 1.8 0.4 91 0.7 36 30   99.31     LegendNANA
20:00 2.3 1.3 93 0.2 36 35   99.38     LegendNANA
21:00 2.8 1.9 94 0.2 36 32   99.48     LegendNANA
22:00 3.0 2.1 94 0.0 35 33   99.50     LegendNANA
23:00 3.3 2.2 93 0.0 36 31   99.57     LegendNANA

Notes on Data Quality.

Legend

  • E = Estimated
  • M = Missing
  • NA = Not Available*
  • [empty] = Indicates an unobserved value
Date modified: